Location: Wiesbaden
(50.0830°N, 8.2500°E)
Time: 20:11:02
(UTC+02:00)

ISS - Pass Details

Date: 21 July 2019
Orbit: 409 x 418 km, 51.6° (Epoch: 20 July)

Event Time Altitude Azimuth Distance (km) Brightness Sun altitude
Rises 22:10:29 0° 242° (WSW) 2,349 0.3 -6.5°
Reaches altitude 10° 22:12:35 10° 240° (WSW) 1,487 -0.7 -6.7°
Maximum altitude 22:15:53 65° 158° (SSE) 459 -3.8 -7.1°
Drops below altitude 10° 22:19:12 10° 76° (ENE) 1,488 -1.3 -7.5°
Sets 22:21:18 0° 73° (ENE) 2,350 -0.2 -7.7°
